When you browse on this site, cookies collect data to enhance your experience and personalize the content and advertising you see.
Visit our Privacy Policy to learn more. By continuing to use the site, you agree to this use of cookies and data.
  • Em Portugal
  • Lista de países
  • Para 7 dias
  • Temperatura da água
  • Mapas de satélite
  • Mapa do tempo
  • Widgets de tempo
  • user-avatar
    Iniciar Sessão

    Previsão horária em Eger

    Hoje, 19 Julho, Sexta-feira

    Tempo Temperatura Precipitação Vento Pressão Humidade
    00:00 +16°C° 0 mm 1 m/s 744 mmHg 85%
    01:00 +16°C° 0 mm 1 m/s 744 mmHg 86%
    02:00 +16°C° 0 mm 1 m/s 744 mmHg 87%
    03:00 +15°C° 0 mm 1 m/s 744 mmHg 88%
    04:00 +15°C° 0 mm 1 m/s 744 mmHg 89%
    05:00 +16°C° 0 mm 1 m/s 744 mmHg 85%
    06:00 +19°C° 0 mm 1 m/s 745 mmHg 81%
    07:00 +20°C° 0 mm 1 m/s 745 mmHg 77%
    08:00 +22°C° 0 mm 1 m/s 745 mmHg 70%
    09:00 +24°C° 0 mm 1 m/s 745 mmHg 63%
    10:00 +26°C° 0 mm 1 m/s 745 mmHg 56%
    11:00 +27°C° 0.1 mm 2 m/s 745 mmHg 53%
    12:00 +27°C° 0.1 mm 2 m/s 745 mmHg 50%
    13:00 +28°C° 0.1 mm 2 m/s 745 mmHg 48%
    14:00 +28°C° 0.2 mm 2 m/s 745 mmHg 49%
    15:00 +28°C° 0.2 mm 2 m/s 745 mmHg 51%
    16:00 +28°C° 0.2 mm 2 m/s 745 mmHg 52%
    17:00 +26°C° 0 mm 2 m/s 745 mmHg 58%
    18:00 +25°C° 0 mm 1 m/s 745 mmHg 63%
    19:00 +24°C° 0 mm 1 m/s 745 mmHg 68%
    20:00 +23°C° 0.1 mm 1 m/s 745 mmHg 70%
    21:00 +22°C° 0.1 mm 1 m/s 745 mmHg 72%
    22:00 +21°C° 0.1 mm 1 m/s 745 mmHg 74%
    23:00 +20°C° 0.5 mm 1 m/s 745 mmHg 77%

    Amanhã, 20 Julho, Sábado

    Tempo Temperatura Precipitação Vento Pressão Humidade
    00:00 +18°C° 0.5 mm 0 m/s 745 mmHg 79%
    01:00 +18°C° 0.5 mm 0 m/s 745 mmHg 82%
    02:00 +17°C° 0 mm 0 m/s 746 mmHg 82%
    03:00 +17°C° 0 mm 0 m/s 746 mmHg 83%
    04:00 +17°C° 0 mm 0 m/s 746 mmHg 83%
    05:00 +18°C° 0 mm 0 m/s 746 mmHg 79%
    06:00 +22°C° 0 mm 1 m/s 746 mmHg 76%
    07:00 +24°C° 0 mm 1 m/s 746 mmHg 72%
    08:00 +25°C° 0.1 mm 1 m/s 747 mmHg 66%
    09:00 +27°C° 0.1 mm 2 m/s 747 mmHg 61%
    10:00 +28°C° 0.1 mm 3 m/s 747 mmHg 55%
    11:00 +29°C° 0.5 mm 3 m/s 747 mmHg 54%
    12:00 +29°C° 0.5 mm 3 m/s 747 mmHg 53%
    13:00 +30°C° 0.5 mm 3 m/s 746 mmHg 52%
    14:00 +30°C° 0.1 mm 3 m/s 746 mmHg 50%
    15:00 +30°C° 0.1 mm 3 m/s 746 mmHg 48%
    16:00 +31°C° 0.1 mm 3 m/s 746 mmHg 47%
    17:00 +29°C° 0 mm 2 m/s 746 mmHg 53%
    18:00 +27°C° 0 mm 2 m/s 746 mmHg 60%
    19:00 +26°C° 0 mm 1 m/s 746 mmHg 66%
    20:00 +25°C° 0.1 mm 1 m/s 746 mmHg 68%
    21:00 +24°C° 0.1 mm 1 m/s 747 mmHg 70%
    22:00 +23°C° 0.1 mm 1 m/s 747 mmHg 71%
    23:00 +22°C° 0 mm 1 m/s 747 mmHg 72%

    Depois de amanhã, 21 Julho, Domingo

    Tempo Temperatura Precipitação Vento Pressão Humidade
    00:00 +22°C° 0 mm 1 m/s 747 mmHg 74%
    01:00 +19°C° 0 mm 0 m/s 747 mmHg 75%
    02:00 +19°C° 0 mm 0 m/s 747 mmHg 76%
    03:00 +19°C° 0 mm 0 m/s 747 mmHg 77%
    04:00 +18°C° 0 mm 0 m/s 747 mmHg 78%
    05:00 +20°C° 0 mm 0 m/s 747 mmHg 74%
    06:00 +24°C° 0 mm 1 m/s 747 mmHg 71%
    07:00 +25°C° 0 mm 1 m/s 747 mmHg 67%
    08:00 +27°C° 0 mm 1 m/s 747 mmHg 62%
    09:00 +28°C° 0 mm 2 m/s 748 mmHg 57%
    10:00 +29°C° 0 mm 2 m/s 748 mmHg 53%
    11:00 +30°C° 0 mm 3 m/s 748 mmHg 49%
    12:00 +31°C° 0 mm 3 m/s 747 mmHg 46%
    13:00 +33°C° 0 mm 3 m/s 747 mmHg 43%
    14:00 +34°C° 0 mm 3 m/s 747 mmHg 44%
    15:00 +34°C° 0 mm 3 m/s 747 mmHg 44%
    16:00 +34°C° 0 mm 3 m/s 747 mmHg 45%
    17:00 +31°C° 0 mm 3 m/s 747 mmHg 51%
    18:00 +29°C° 0 mm 2 m/s 747 mmHg 57%
    19:00 +27°C° 0 mm 2 m/s 747 mmHg 63%
    20:00 +26°C° 0.2 mm 2 m/s 747 mmHg 69%
    21:00 +25°C° 0.2 mm 2 m/s 747 mmHg 74%
    22:00 +24°C° 0.2 mm 2 m/s 748 mmHg 79%
    23:00 +23°C° 0 mm 2 m/s 748 mmHg 80%

    22 Julho, Segunda-feira

    Tempo Temperatura Precipitação Vento Pressão Humidade
    00:00 +22°C° 0 mm 1 m/s 748 mmHg 81%
    01:00 +22°C° 0 mm 1 m/s 748 mmHg 82%
    02:00 +21°C° 0 mm 1 m/s 747 mmHg 82%
    03:00 +21°C° 0 mm 1 m/s 747 mmHg 83%
    04:00 +20°C° 0 mm 1 m/s 747 mmHg 84%
    05:00 +20°C° 0 mm 2 m/s 748 mmHg 81%
    06:00 +23°C° 0 mm 2 m/s 748 mmHg 77%
    07:00 +24°C° 0 mm 2 m/s 748 mmHg 74%
    08:00 +26°C° 0 mm 2 m/s 749 mmHg 67%
    09:00 +28°C° 0 mm 2 m/s 749 mmHg 60%
    10:00 +29°C° 0 mm 1 m/s 749 mmHg 52%
    11:00 +30°C° 0.1 mm 2 m/s 749 mmHg 50%
    12:00 +30°C° 0.1 mm 2 m/s 749 mmHg 48%
    13:00 +30°C° 0.1 mm 2 m/s 748 mmHg 46%
    14:00 +30°C° 0 mm 2 m/s 748 mmHg 46%
    15:00 +30°C° 0 mm 2 m/s 748 mmHg 47%
    16:00 +30°C° 0 mm 2 m/s 748 mmHg 48%
    17:00 +28°C° 0.2 mm 2 m/s 748 mmHg 57%
    18:00 +25°C° 0.2 mm 2 m/s 748 mmHg 66%
    19:00 +22°C° 0.2 mm 3 m/s 748 mmHg 75%
    20:00 +21°C° 0 mm 2 m/s 748 mmHg 76%
    21:00 +21°C° 0 mm 2 m/s 749 mmHg 77%
    22:00 +20°C° 0 mm 2 m/s 749 mmHg 79%
    23:00 +19°C° 0 mm 2 m/s 749 mmHg 81%

    23 Julho, Terça-feira

    Tempo Temperatura Precipitação Vento Pressão Humidade
    00:00 +19°C° 0 mm 2 m/s 749 mmHg 82%
    01:00 +19°C° 0 mm 1 m/s 749 mmHg 84%
    02:00 +19°C° 0 mm 1 m/s 749 mmHg 84%
    03:00 +19°C° 0 mm 1 m/s 749 mmHg 85%
    04:00 +18°C° 0 mm 1 m/s 749 mmHg 85%
    05:00 +19°C° 0 mm 2 m/s 749 mmHg 79%
    06:00 +20°C° 0 mm 2 m/s 749 mmHg 72%
    07:00 +23°C° 0 mm 2 m/s 749 mmHg 66%
    08:00 +24°C° 0 mm 2 m/s 749 mmHg 60%
    09:00 +25°C° 0 mm 2 m/s 749 mmHg 55%
    10:00 +27°C° 0 mm 2 m/s 749 mmHg 49%
    11:00 +27°C° 0.1 mm 2 m/s 749 mmHg 49%
    12:00 +27°C° 0.1 mm 2 m/s 749 mmHg 50%
    13:00 +27°C° 0.1 mm 2 m/s 748 mmHg 50%
    14:00 +27°C° 0 mm 1 m/s 748 mmHg 49%
    15:00 +27°C° 0 mm 1 m/s 748 mmHg 47%
    16:00 +27°C° 0 mm 1 m/s 747 mmHg 46%
    17:00 +26°C° 0 mm 1 m/s 747 mmHg 51%
    18:00 +25°C° 0 mm 2 m/s 747 mmHg 57%
    19:00 +23°C° 0 mm 2 m/s 747 mmHg 62%
    20:00 +21°C° 0 mm 2 m/s 748 mmHg 63%
    21:00 +20°C° 0 mm 2 m/s 748 mmHg 63%
    22:00 +19°C° 0 mm 2 m/s 748 mmHg 64%
    23:00 +19°C° 0 mm 2 m/s 748 mmHg 67%

    24 Julho, Quarta-feira

    Tempo Temperatura Precipitação Vento Pressão Humidade
    00:00 +19°C° 0 mm 2 m/s 748 mmHg 69%
    01:00 +18°C° 0 mm 2 m/s 748 mmHg 71%
    02:00 +18°C° 0 mm 2 m/s 747 mmHg 73%
    03:00 +17°C° 0 mm 2 m/s 747 mmHg 76%
    04:00 +17°C° 0 mm 2 m/s 747 mmHg 78%
    05:00 +19°C° 0 mm 2 m/s 747 mmHg 73%
    06:00 +20°C° 0 mm 2 m/s 747 mmHg 68%
    07:00 +23°C° 0 mm 2 m/s 747 mmHg 63%
    08:00 +24°C° 0 mm 2 m/s 747 mmHg 58%
    09:00 +26°C° 0 mm 3 m/s 747 mmHg 53%
    10:00 +27°C° 0 mm 3 m/s 747 mmHg 49%
    11:00 +27°C° 0 mm 3 m/s 747 mmHg 48%
    12:00 +27°C° 0 mm 2 m/s 746 mmHg 48%
    13:00 +28°C° 0 mm 2 m/s 746 mmHg 48%
    14:00 +28°C° 0 mm 2 m/s 746 mmHg 49%
    15:00 +28°C° 0 mm 2 m/s 745 mmHg 49%
    16:00 +28°C° 0 mm 2 m/s 745 mmHg 50%
    17:00 +26°C° 0 mm 2 m/s 745 mmHg 53%
    18:00 +25°C° 0 mm 2 m/s 745 mmHg 56%
    19:00 +24°C° 0 mm 3 m/s 745 mmHg 59%
    20:00 +22°C° 0 mm 3 m/s 746 mmHg 61%
    21:00 +21°C° 0 mm 3 m/s 746 mmHg 63%
    22:00 +20°C° 0 mm 3 m/s 746 mmHg 65%
    23:00 +19°C° 0 mm 3 m/s 746 mmHg 67%
    Mostrar mais